Time,TemperatureF,DewpointF,PressureIn,WindDirection,WindDirectionDegrees,WindSpeedMPH,WindSpeedGustMPH,Humidity,HourlyPrecipIn,Conditions,Clouds,dailyrainin,SoftwareType,DateUTC
2013-03-27 00:00:00,40.6,32.3,30.27,NW,319,1.0,1.0,72,0.00,,,0.00,Wunderground v.1.15,2013-03-27 04:00:00,
2013-03-27 00:02:00,40.6,32.3,30.27,NW,321,1.0,1.0,72,0.00,,,0.00,Wunderground v.1.15,2013-03-27 04:02:00,
2013-03-27 00:04:00,40.6,32.3,30.27,WNW,298,1.0,1.0,72,0.00,,,0.00,Wunderground v.1.15,2013-03-27 04:04:00,
2013-03-27 00:08:00,40.7,32.0,30.27,WNW,287,1.0,3.0,71,0.00,,,0.00,Wunderground v.1.15,2013-03-27 04:08:00,
2013-03-27 00:14:00,40.8,31.4,30.27,NNW,333,2.0,2.0,69,0.00,,,0.00,Wunderground v.1.15,2013-03-27 04:14:00,
2013-03-27 00:20:00,41.0,30.9,30.27,SW,222,2.0,2.0,67,0.00,,,0.00,Wunderground v.1.15,2013-03-27 04:20:00,
2013-03-27 00:26:00,40.9,30.8,30.27,NW,306,1.0,2.0,67,0.00,,,0.00,Wunderground v.1.15,2013-03-27 04:26:00,
2013-03-27 00:32:00,40.9,30.8,30.27,WNW,291,1.0,1.0,67,0.00,,,0.00,Wunderground v.1.15,2013-03-27 04:32:00,
2013-03-27 00:38:00,41.0,30.5,30.27,WSW,256,2.0,2.0,66,0.00,,,0.00,Wunderground v.1.15,2013-03-27 04:38:00,
2013-03-27 00:44:00,41.0,30.5,30.27,NNW,346,2.0,2.0,66,0.00,,,0.00,Wunderground v.1.15,2013-03-27 04:44:00,
2013-03-27 00:50:00,40.9,30.4,30.27,SW,223,2.0,2.0,66,0.00,,,0.00,Wunderground v.1.15,2013-03-27 04:50:00,
2013-03-27 00:58:00,40.6,30.5,30.27,WNW,294,1.0,2.0,67,0.00,,,0.00,Wunderground v.1.15,2013-03-27 04:58:00,
2013-03-27 01:04:00,40.4,30.3,30.27,West,281,1.0,3.0,67,0.00,,,0.00,Wunderground v.1.15,2013-03-27 05:04:00,
2013-03-27 01:10:00,40.1,30.4,30.27,WSW,255,1.0,1.0,68,0.00,,,0.00,Wunderground v.1.15,2013-03-27 05:10:00,
2013-03-27 01:16:00,39.9,30.5,30.27,WNW,290,1.0,1.0,69,0.00,,,0.00,Wunderground v.1.15,2013-03-27 05:16:00,
2013-03-27 01:24:00,39.6,31.0,30.28,WNW,300,1.0,2.0,71,0.00,,,0.00,Wunderground v.1.15,2013-03-27 05:24:00,
2013-03-27 01:30:00,39.4,30.8,30.27,WNW,294,1.0,1.0,71,0.00,,,0.00,Wunderground v.1.15,2013-03-27 05:30:00,
2013-03-27 01:38:00,39.2,30.9,30.27,West,281,1.0,2.0,72,0.00,,,0.00,Wunderground v.1.15,2013-03-27 05:38:00,
2013-03-27 01:44:00,39.1,31.2,30.27,WNW,288,1.0,1.0,73,0.00,,,0.00,Wunderground v.1.15,2013-03-27 05:44:00,
2013-03-27 01:50:00,39.0,31.1,30.28,WNW,284,1.0,1.0,73,0.00,,,0.00,Wunderground v.1.15,2013-03-27 05:50:00,
2013-03-27 01:58:00,38.8,31.2,30.28,West,273,1.0,1.0,74,0.00,,,0.00,Wunderground v.1.15,2013-03-27 05:58:00,
2013-03-27 02:04:00,38.6,31.4,30.28,West,271,1.0,4.0,75,0.00,,,0.00,Wunderground v.1.15,2013-03-27 06:04:00,
2013-03-27 02:10:00,38.6,31.7,30.27,WNW,292,1.0,3.0,76,0.00,,,0.00,Wunderground v.1.15,2013-03-27 06:10:00,
2013-03-27 02:16:00,38.5,31.6,30.27,NW,306,2.0,3.0,76,0.00,,,0.00,Wunderground v.1.15,2013-03-27 06:16:00,
2013-03-27 02:22:00,38.3,31.4,30.27,West,275,2.0,3.0,76,0.00,,,0.00,Wunderground v.1.15,2013-03-27 06:22:00,
2013-03-27 02:28:00,38.1,31.2,30.27,WNW,296,2.0,3.0,76,0.00,,,0.00,Wunderground v.1.15,2013-03-27 06:28:00,
2013-03-27 02:34:00,38.0,31.1,30.27,WNW,298,2.0,3.0,76,0.00,,,0.00,Wunderground v.1.15,2013-03-27 06:34:00,
2013-03-27 02:40:00,38.1,31.2,30.27,WNW,292,2.0,4.0,76,0.00,,,0.00,Wunderground v.1.15,2013-03-27 06:40:00,
2013-03-27 02:46:00,38.1,30.9,30.27,NW,326,2.0,4.0,75,0.00,,,0.00,Wunderground v.1.15,2013-03-27 06:46:00,
2013-03-27 02:52:00,38.1,30.5,30.27,WSW,245,2.0,4.0,74,0.00,,,0.00,Wunderground v.1.15,2013-03-27 06:52:00,
2013-03-27 02:58:00,38.2,30.6,30.27,SW,230,2.0,4.0,74,0.00,,,0.00,Wunderground v.1.15,2013-03-27 06:58:00,
2013-03-27 03:04:00,38.1,30.2,30.26,WSW,256,2.0,4.0,73,0.00,,,0.00,Wunderground v.1.15,2013-03-27 07:04:00,
2013-03-27 03:10:00,38.1,30.2,30.26,West,279,2.0,2.0,73,0.00,,,0.00,Wunderground v.1.15,2013-03-27 07:10:00,
2013-03-27 03:16:00,38.0,30.1,30.26,WNW,290,2.0,3.0,73,0.00,,,0.00,Wunderground v.1.15,2013-03-27 07:16:00,
2013-03-27 03:22:00,37.9,30.4,30.26,WNW,283,2.0,2.0,74,0.00,,,0.00,Wunderground v.1.15,2013-03-27 07:22:00,
2013-03-27 03:28:00,37.9,30.4,30.26,WNW,283,2.0,3.0,74,0.00,,,0.00,Wunderground v.1.15,2013-03-27 07:28:00,
2013-03-27 03:34:00,37.8,30.3,30.26,WSW,248,2.0,4.0,74,0.00,,,0.00,Wunderground v.1.15,2013-03-27 07:34:00,
2013-03-27 03:40:00,37.7,30.2,30.26,WNW,287,2.0,2.0,74,0.00,,,0.00,Wunderground v.1.15,2013-03-27 07:40:00,
2013-03-27 03:46:00,37.6,30.1,30.26,WNW,303,2.0,3.0,74,0.00,,,0.00,Wunderground v.1.15,2013-03-27 07:46:00,
2013-03-27 03:52:00,37.5,30.3,30.26,WNW,286,3.0,4.0,75,0.00,,,0.00,Wunderground v.1.15,2013-03-27 07:52:00,
2013-03-27 03:58:00,37.4,30.2,30.26,WNW,285,2.0,4.0,75,0.00,,,0.00,Wunderground v.1.15,2013-03-27 07:58:00,
2013-03-27 04:04:00,37.4,30.2,30.26,West,273,3.0,6.0,75,0.00,,,0.00,Wunderground v.1.15,2013-03-27 08:04:00,
2013-03-27 04:10:00,37.4,30.2,30.26,West,279,3.0,3.0,75,0.00,,,0.00,Wunderground v.1.15,2013-03-27 08:10:00,
2013-03-27 04:16:00,37.3,29.8,30.26,NW,311,3.0,5.0,74,0.00,,,0.00,Wunderground v.1.15,2013-03-27 08:16:00,
2013-03-27 04:22:00,37.3,29.8,30.26,West,281,3.0,3.0,74,0.00,,,0.00,Wunderground v.1.15,2013-03-27 08:22:00,
2013-03-27 04:28:00,37.2,30.0,30.26,WNW,283,3.0,3.0,75,0.00,,,0.00,Wunderground v.1.15,2013-03-27 08:28:00,
2013-03-27 04:34:00,37.0,29.8,30.26,WNW,297,2.0,3.0,75,0.00,,,0.00,Wunderground v.1.15,2013-03-27 08:34:00,
2013-03-27 04:40:00,36.9,29.7,30.26,WNW,288,2.0,2.0,75,0.00,,,0.00,Wunderground v.1.15,2013-03-27 08:40:00,
2013-03-27 04:46:00,36.7,29.8,30.26,West,280,2.0,3.0,76,0.00,,,0.00,Wunderground v.1.15,2013-03-27 08:46:00,
2013-03-27 04:52:00,36.6,29.7,30.26,West,280,2.0,2.0,76,0.00,,,0.00,Wunderground v.1.15,2013-03-27 08:52:00,
2013-03-27 04:58:00,36.4,29.6,30.26,NW,310,2.0,2.0,76,0.00,,,0.00,Wunderground v.1.15,2013-03-27 08:58:00,
2013-03-27 05:04:00,36.3,29.8,30.26,WNW,303,2.0,6.0,77,0.00,,,0.00,Wunderground v.1.15,2013-03-27 09:04:00,
2013-03-27 05:10:00,36.2,29.7,30.26,West,272,2.0,2.0,77,0.00,,,0.00,Wunderground v.1.15,2013-03-27 09:10:00,
2013-03-27 05:18:00,36.1,29.6,30.27,WNW,288,2.0,3.0,77,0.00,,,0.00,Wunderground v.1.15,2013-03-27 09:18:00,
2013-03-27 05:24:00,36.2,29.7,30.27,WNW,295,3.0,3.0,77,0.00,,,0.00,Wunderground v.1.15,2013-03-27 09:24:00,
2013-03-27 05:30:00,36.2,29.7,30.27,WSW,248,3.0,3.0,77,0.00,,,0.00,Wunderground v.1.15,2013-03-27 09:30:00,
2013-03-27 05:36:00,36.1,29.6,30.27,NW,317,3.0,4.0,77,0.00,,,0.00,Wunderground v.1.15,2013-03-27 09:36:00,
2013-03-27 05:42:00,36.1,29.6,30.27,WNW,295,3.0,3.0,77,0.00,,,0.00,Wunderground v.1.15,2013-03-27 09:42:00,
2013-03-27 05:48:00,36.0,29.5,30.27,WNW,288,3.0,3.0,77,0.00,,,0.00,Wunderground v.1.15,2013-03-27 09:48:00,
2013-03-27 05:54:00,36.0,29.5,30.27,West,280,2.0,4.0,77,0.00,,,0.00,Wunderground v.1.15,2013-03-27 09:54:00,
2013-03-27 06:00:00,35.9,29.4,30.27,NW,320,3.0,3.0,77,0.00,,,0.00,Wunderground v.1.15,2013-03-27 10:00:00,
2013-03-27 06:08:00,35.8,29.6,30.27,WNW,294,3.0,6.0,78,0.00,,,0.00,Wunderground v.1.15,2013-03-27 10:08:00,
2013-03-27 06:14:00,35.8,29.3,30.27,WNW,303,3.0,5.0,77,0.00,,,0.00,Wunderground v.1.15,2013-03-27 10:14:00,
2013-03-27 06:20:00,35.7,29.2,30.27,West,271,3.0,3.0,77,0.00,,,0.00,Wunderground v.1.15,2013-03-27 10:20:00,
2013-03-27 06:26:00,35.7,29.5,30.27,WNW,296,2.0,5.0,78,0.00,,,0.00,Wunderground v.1.15,2013-03-27 10:26:00,
2013-03-27 06:32:00,35.6,29.1,30.27,West,279,3.0,3.0,77,0.00,,,0.00,Wunderground v.1.15,2013-03-27 10:32:00,
2013-03-27 06:38:00,35.7,29.2,30.28,West,266,3.0,4.0,77,0.00,,,0.00,Wunderground v.1.15,2013-03-27 10:38:00,
2013-03-27 06:44:00,35.6,29.1,30.28,ESE,112,2.0,3.0,77,0.00,,,0.00,Wunderground v.1.15,2013-03-27 10:44:00,
2013-03-27 06:50:00,35.5,29.0,30.28,North,349,2.0,3.0,77,0.00,,,0.00,Wunderground v.1.15,2013-03-27 10:50:00,
2013-03-27 06:58:00,35.5,29.0,30.29,WSW,242,3.0,4.0,77,0.00,,,0.00,Wunderground v.1.15,2013-03-27 10:58:00,
2013-03-27 07:04:00,35.4,28.9,30.29,West,272,3.0,6.0,77,0.00,,,0.00,Wunderground v.1.15,2013-03-27 11:04:00,
2013-03-27 07:10:00,35.3,28.8,30.29,SW,230,3.0,3.0,77,0.00,,,0.00,Wunderground v.1.15,2013-03-27 11:10:00,
2013-03-27 07:16:00,35.3,28.8,30.29,NW,321,2.0,4.0,77,0.00,,,0.00,Wunderground v.1.15,2013-03-27 11:16:00,
2013-03-27 07:24:00,35.1,28.6,30.29,West,259,2.0,4.0,77,0.00,,,0.00,Wunderground v.1.15,2013-03-27 11:24:00,
2013-03-27 07:30:00,35.2,28.7,30.30,WNW,296,3.0,3.0,77,0.00,,,0.00,Wunderground v.1.15,2013-03-27 11:30:00,
2013-03-27 07:36:00,35.4,28.6,30.30,WNW,294,3.0,3.0,76,0.00,,,0.00,Wunderground v.1.15,2013-03-27 11:36:00,
2013-03-27 07:42:00,35.7,28.9,30.30,NW,320,3.0,4.0,76,0.00,,,0.00,Wunderground v.1.15,2013-03-27 11:42:00,
2013-03-27 07:48:00,36.0,28.8,30.30,WNW,287,3.0,4.0,75,0.00,,,0.00,Wunderground v.1.15,2013-03-27 11:48:00,
2013-03-27 07:54:00,36.3,29.1,30.30,West,273,3.0,5.0,75,0.00,,,0.00,Wunderground v.1.15,2013-03-27 11:54:00,
2013-03-27 08:00:00,36.5,29.0,30.30,SW,214,3.0,3.0,74,0.00,,,0.00,Wunderground v.1.15,2013-03-27 12:00:00,
2013-03-27 08:08:00,36.9,29.1,30.31,NNE,12,3.0,8.0,73,0.00,,,0.00,Wunderground v.1.15,2013-03-27 12:08:00,
2013-03-27 08:14:00,37.4,29.2,30.31,NW,311,3.0,3.0,72,0.00,,,0.00,Wunderground v.1.15,2013-03-27 12:14:00,
2013-03-27 08:20:00,37.9,29.3,30.31,SSW,210,3.0,4.0,71,0.00,,,0.00,Wunderground v.1.15,2013-03-27 12:20:00,
2013-03-27 08:28:00,38.4,29.1,30.32,NW,316,4.0,6.0,69,0.00,,,0.00,Wunderground v.1.15,2013-03-27 12:28:00,
2013-03-27 08:34:00,38.8,28.8,30.32,SE,144,5.0,5.0,67,0.00,,,0.00,Wunderground v.1.15,2013-03-27 12:34:00,
2013-03-27 08:40:00,39.4,29.0,30.32,SW,223,4.0,4.0,66,0.00,,,0.00,Wunderground v.1.15,2013-03-27 12:40:00,
2013-03-27 08:46:00,39.9,28.7,30.32,SSW,205,5.0,5.0,64,0.00,,,0.00,Wunderground v.1.15,2013-03-27 12:46:00,
2013-03-27 08:52:00,40.6,29.7,30.32,NW,304,5.0,5.0,65,0.00,,,0.00,Wunderground v.1.15,2013-03-27 12:52:00,
2013-03-27 08:58:00,40.9,28.9,30.32,SW,226,5.0,7.0,62,0.00,,,0.00,Wunderground v.1.15,2013-03-27 12:58:00,
2013-03-27 09:06:00,41.1,29.1,30.32,WNW,288,5.0,8.0,62,0.00,,,0.00,Wunderground v.1.15,2013-03-27 13:06:00,
2013-03-27 09:12:00,41.4,29.3,30.32,SSW,196,5.0,6.0,62,0.00,,,0.00,Wunderground v.1.15,2013-03-27 13:12:00,
2013-03-27 09:18:00,41.7,29.2,30.32,WSW,244,6.0,11.0,61,0.00,,,0.00,Wunderground v.1.15,2013-03-27 13:18:00,
2013-03-27 09:24:00,42.1,30.0,30.32,SE,130,6.0,7.0,62,0.00,,,0.00,Wunderground v.1.15,2013-03-27 13:24:00,
2013-03-27 09:30:00,42.7,29.8,30.32,SSW,192,5.0,7.0,60,0.00,,,0.00,Wunderground v.1.15,2013-03-27 13:30:00,
2013-03-27 09:36:00,43.1,29.3,30.32,SW,215,5.0,7.0,58,0.00,,,0.00,Wunderground v.1.15,2013-03-27 13:36:00,
2013-03-27 09:42:00,43.7,30.3,30.32,West,267,4.0,8.0,59,0.00,,,0.00,Wunderground v.1.15,2013-03-27 13:42:00,
2013-03-27 09:48:00,44.1,29.4,30.32,West,267,5.0,8.0,56,0.00,,,0.00,Wunderground v.1.15,2013-03-27 13:48:00,
2013-03-27 09:54:00,44.4,29.2,30.32,NW,309,5.0,5.0,55,0.00,,,0.00,Wunderground v.1.15,2013-03-27 13:54:00,
2013-03-27 10:00:00,44.4,29.2,30.32,NW,323,6.0,6.0,55,0.00,,,0.00,Wunderground v.1.15,2013-03-27 14:00:00,
2013-03-27 10:08:00,44.9,29.7,30.32,South,190,6.0,15.0,55,0.00,,,0.00,Wunderground v.1.15,2013-03-27 14:08:00,
2013-03-27 10:14:00,45.3,30.1,30.32,WNW,295,5.0,6.0,55,0.00,,,0.00,Wunderground v.1.15,2013-03-27 14:14:00,
2013-03-27 10:20:00,46.0,29.8,30.32,SSW,210,5.0,5.0,53,0.00,,,0.00,Wunderground v.1.15,2013-03-27 14:20:00,
2013-03-27 10:30:00,47.5,30.3,30.32,SSE,167,3.0,3.0,51,0.00,,,0.00,Wunderground v.1.15,2013-03-27 14:30:00,
2013-03-27 10:36:00,47.4,29.2,30.32,West,278,4.0,6.0,49,0.00,,,0.00,Wunderground v.1.15,2013-03-27 14:36:00,
2013-03-27 10:42:00,47.4,29.7,30.32,WNW,295,6.0,6.0,50,0.00,,,0.00,Wunderground v.1.15,2013-03-27 14:42:00,
2013-03-27 10:48:00,48.0,29.7,30.32,East,85,4.0,6.0,49,0.00,,,0.00,Wunderground v.1.15,2013-03-27 14:48:00,
2013-03-27 10:54:00,49.1,30.7,30.32,WNW,290,3.0,4.0,49,0.00,,,0.00,Wunderground v.1.15,2013-03-27 14:54:00,
2013-03-27 11:00:00,48.6,28.7,30.32,WSW,242,4.0,6.0,46,0.00,,,0.00,Wunderground v.1.15,2013-03-27 15:00:00,
2013-03-27 11:08:00,48.4,29.1,30.32,South,175,5.0,8.0,47,0.00,,,0.00,Wunderground v.1.15,2013-03-27 15:08:00,
2013-03-27 11:14:00,49.2,29.3,30.32,NW,321,3.0,6.0,46,0.00,,,0.00,Wunderground v.1.15,2013-03-27 15:14:00,
2013-03-27 11:20:00,48.7,28.8,30.32,WNW,284,4.0,4.0,46,0.00,,,0.00,Wunderground v.1.15,2013-03-27 15:20:00,
2013-03-27 11:26:00,49.6,29.1,30.31,WNW,295,4.0,4.0,45,0.00,,,0.00,Wunderground v.1.15,2013-03-27 15:26:00,
2013-03-27 11:32:00,50.4,29.8,30.32,South,184,3.0,3.0,45,0.00,,,0.00,Wunderground v.1.15,2013-03-27 15:32:00,
2013-03-27 11:38:00,50.7,29.6,30.32,WNW,288,3.0,5.0,44,0.00,,,0.00,Wunderground v.1.15,2013-03-27 15:38:00,
2013-03-27 11:44:00,51.3,29.5,30.32,North,351,3.0,5.0,43,0.00,,,0.00,Wunderground v.1.15,2013-03-27 15:44:00,
2013-03-27 11:50:00,51.2,28.9,30.32,WNW,290,4.0,4.0,42,0.00,,,0.00,Wunderground v.1.15,2013-03-27 15:50:00,
2013-03-27 11:56:00,52.2,29.2,30.32,WSW,253,3.0,4.0,41,0.00,,,0.00,Wunderground v.1.15,2013-03-27 15:56:00,
2013-03-27 12:02:00,51.6,28.6,30.32,West,267,3.0,9.0,41,0.00,,,0.00,Wunderground v.1.15,2013-03-27 16:02:00,
2013-03-27 12:08:00,51.4,30.2,30.31,SW,218,4.0,9.0,44,0.00,,,0.00,Wunderground v.1.15,2013-03-27 16:08:00,
2013-03-27 12:14:00,52.1,29.7,30.32,WSW,241,4.0,6.0,42,0.00,,,0.00,Wunderground v.1.15,2013-03-27 16:14:00,
2013-03-27 12:20:00,52.5,29.5,30.31,SSW,200,4.0,4.0,41,0.00,,,0.00,Wunderground v.1.15,2013-03-27 16:20:00,
2013-03-27 12:28:00,52.8,29.1,30.31,West,261,4.0,4.0,40,0.00,,,0.00,Wunderground v.1.15,2013-03-27 16:28:00,
2013-03-27 12:34:00,53.8,29.4,30.31,South,187,3.0,3.0,39,0.00,,,0.00,Wunderground v.1.15,2013-03-27 16:34:00,
2013-03-27 12:40:00,55.8,30.5,30.31,East,88,2.0,3.0,38,0.00,,,0.00,Wunderground v.1.15,2013-03-27 16:40:00,
2013-03-27 12:46:00,55.2,30.7,30.31,WNW,285,3.0,5.0,39,0.00,,,0.00,Wunderground v.1.15,2013-03-27 16:46:00,
2013-03-27 12:52:00,53.8,29.4,30.31,NNW,331,4.0,4.0,39,0.00,,,0.00,Wunderground v.1.15,2013-03-27 16:52:00,
2013-03-27 12:58:00,54.7,30.8,30.31,SSW,198,2.0,4.0,40,0.00,,,0.00,Wunderground v.1.15,2013-03-27 16:58:00,
2013-03-27 13:04:00,55.4,30.8,30.30,ENE,76,3.0,10.0,39,0.00,,,0.00,Wunderground v.1.15,2013-03-27 17:04:00,
2013-03-27 13:10:00,55.7,29.1,30.30,West,278,3.0,8.0,36,0.00,,,0.00,Wunderground v.1.15,2013-03-27 17:10:00,
2013-03-27 13:16:00,54.3,29.8,30.30,NW,306,5.0,8.0,39,0.00,,,0.00,Wunderground v.1.15,2013-03-27 17:16:00,
2013-03-27 13:22:00,54.8,30.3,30.30,West,269,4.0,5.0,39,0.00,,,0.00,Wunderground v.1.15,2013-03-27 17:22:00,
2013-03-27 13:28:00,55.1,29.9,30.30,West,273,3.0,10.0,38,0.00,,,0.00,Wunderground v.1.15,2013-03-27 17:28:00,
2013-03-27 13:34:00,55.4,30.8,30.30,West,269,3.0,7.0,39,0.00,,,0.00,Wunderground v.1.15,2013-03-27 17:34:00,
2013-03-27 13:40:00,55.8,31.2,30.29,West,261,3.0,5.0,39,0.00,,,0.00,Wunderground v.1.15,2013-03-27 17:40:00,
2013-03-27 13:48:00,56.4,30.4,30.29,NE,44,3.0,5.0,37,0.00,,,0.00,Wunderground v.1.15,2013-03-27 17:48:00,
2013-03-27 13:54:00,56.1,30.2,30.29,WSW,256,4.0,6.0,37,0.00,,,0.00,Wunderground v.1.15,2013-03-27 17:54:00,
2013-03-27 14:00:00,56.4,29.7,30.29,NW,304,4.0,4.0,36,0.00,,,0.00,Wunderground v.1.15,2013-03-27 18:00:00,
2013-03-27 14:08:00,56.7,30.0,30.29,WNW,301,4.0,9.0,36,0.00,,,0.00,Wunderground v.1.15,2013-03-27 18:08:00,
2013-03-27 14:14:00,57.4,30.6,30.28,WSW,244,3.0,5.0,36,0.00,,,0.00,Wunderground v.1.15,2013-03-27 18:14:00,
2013-03-27 14:20:00,56.6,30.6,30.28,SSE,152,5.0,5.0,37,0.00,,,0.00,Wunderground v.1.15,2013-03-27 18:20:00,
2013-03-27 14:28:00,56.7,30.0,30.27,West,261,3.0,5.0,36,0.00,,,0.00,Wunderground v.1.15,2013-03-27 18:28:00,
2013-03-27 14:34:00,57.8,31.0,30.27,WSW,252,2.0,5.0,36,0.00,,,0.00,Wunderground v.1.15,2013-03-27 18:34:00,
2013-03-27 14:40:00,59.1,32.1,30.27,West,279,2.0,9.0,36,0.00,,,0.00,Wunderground v.1.15,2013-03-27 18:40:00,
2013-03-27 14:48:00,57.3,30.5,30.27,WSW,245,5.0,9.0,36,0.00,,,0.00,Wunderground v.1.15,2013-03-27 18:48:00,
2013-03-27 14:54:00,57.1,29.0,30.26,West,273,5.0,8.0,34,0.00,,,0.00,Wunderground v.1.15,2013-03-27 18:54:00,
2013-03-27 15:00:00,58.2,30.7,30.26,SW,234,3.0,3.0,35,0.00,,,0.00,Wunderground v.1.15,2013-03-27 19:00:00,
2013-03-27 15:08:00,58.3,29.3,30.25,West,273,3.0,8.0,33,0.00,,,0.00,Wunderground v.1.15,2013-03-27 19:08:00,
2013-03-27 15:14:00,58.0,30.5,30.25,WNW,285,5.0,8.0,35,0.00,,,0.00,Wunderground v.1.15,2013-03-27 19:14:00,
2013-03-27 15:20:00,58.2,29.9,30.25,WNW,299,5.0,5.0,34,0.00,,,0.00,Wunderground v.1.15,2013-03-27 19:20:00,
2013-03-27 15:26:00,58.4,30.1,30.24,West,263,4.0,10.0,34,0.00,,,0.00,Wunderground v.1.15,2013-03-27 19:26:00,
2013-03-27 15:32:00,58.3,30.0,30.24,South,183,6.0,9.0,34,0.00,,,0.00,Wunderground v.1.15,2013-03-27 19:32:00,
2013-03-27 15:38:00,59.5,31.1,30.24,SE,141,4.0,9.0,34,0.00,,,0.00,Wunderground v.1.15,2013-03-27 19:38:00,
2013-03-27 15:44:00,60.0,31.5,30.24,NW,304,2.0,6.0,34,0.00,,,0.00,Wunderground v.1.15,2013-03-27 19:44:00,
2013-03-27 15:50:00,60.1,32.3,30.24,West,279,3.0,6.0,35,0.00,,,0.00,Wunderground v.1.15,2013-03-27 19:50:00,
2013-03-27 15:58:00,59.7,31.3,30.23,WNW,298,3.0,6.0,34,0.00,,,0.00,Wunderground v.1.15,2013-03-27 19:58:00,
2013-03-27 16:04:00,60.4,31.1,30.23,West,259,2.0,10.0,33,0.00,,,0.00,Wunderground v.1.15,2013-03-27 20:04:00,
2013-03-27 16:10:00,59.7,31.3,30.23,SSW,200,5.0,5.0,34,0.00,,,0.00,Wunderground v.1.15,2013-03-27 20:10:00,
2013-03-27 16:18:00,59.5,31.8,30.23,West,267,4.0,10.0,35,0.00,,,0.00,Wunderground v.1.15,2013-03-27 20:18:00,
2013-03-27 16:24:00,59.0,32.1,30.23,SW,236,7.0,9.0,36,0.00,,,0.00,Wunderground v.1.15,2013-03-27 20:24:00,
2013-03-27 16:30:00,59.8,32.1,30.23,NNW,338,5.0,5.0,35,0.00,,,0.00,Wunderground v.1.15,2013-03-27 20:30:00,
2013-03-27 16:38:00,59.3,30.9,30.23,WSW,252,6.0,11.0,34,0.00,,,0.00,Wunderground v.1.15,2013-03-27 20:38:00,
2013-03-27 16:44:00,59.7,31.3,30.23,West,263,6.0,9.0,34,0.00,,,0.00,Wunderground v.1.15,2013-03-27 20:44:00,
2013-03-27 16:50:00,59.6,31.2,30.23,WNW,286,6.0,6.0,34,0.00,,,0.00,Wunderground v.1.15,2013-03-27 20:50:00,
2013-03-27 16:56:00,59.9,31.4,30.22,West,280,5.0,7.0,34,0.00,,,0.00,Wunderground v.1.15,2013-03-27 20:56:00,
2013-03-27 17:02:00,59.8,30.6,30.22,WNW,290,5.0,12.0,33,0.00,,,0.00,Wunderground v.1.15,2013-03-27 21:02:00,
2013-03-27 17:08:00,59.5,31.1,30.22,West,263,7.0,12.0,34,0.00,,,0.00,Wunderground v.1.15,2013-03-27 21:08:00,
2013-03-27 17:14:00,59.1,30.7,30.22,West,279,8.0,8.0,34,0.00,,,0.00,Wunderground v.1.15,2013-03-27 21:14:00,
2013-03-27 17:20:00,59.6,31.2,30.22,West,275,6.0,6.0,34,0.00,,,0.00,Wunderground v.1.15,2013-03-27 21:20:00,
2013-03-27 17:26:00,59.7,31.3,30.23,WNW,291,5.0,7.0,34,0.00,,,0.00,Wunderground v.1.15,2013-03-27 21:26:00,
2013-03-27 17:32:00,59.7,30.5,30.23,NW,319,6.0,6.0,33,0.00,,,0.00,Wunderground v.1.15,2013-03-27 21:32:00,
2013-03-27 17:38:00,59.7,30.5,30.22,West,280,5.0,8.0,33,0.00,,,0.00,Wunderground v.1.15,2013-03-27 21:38:00,
2013-03-27 17:44:00,59.9,31.4,30.22,WNW,297,5.0,8.0,34,0.00,,,0.00,Wunderground v.1.15,2013-03-27 21:44:00,
2013-03-27 17:50:00,59.6,29.7,30.22,WNW,295,6.0,9.0,32,0.00,,,0.00,Wunderground v.1.15,2013-03-27 21:50:00,
2013-03-27 17:56:00,59.4,31.0,30.22,WNW,283,6.0,9.0,34,0.00,,,0.00,Wunderground v.1.15,2013-03-27 21:56:00,
2013-03-27 18:02:00,59.5,31.1,30.23,WNW,294,5.0,8.0,34,0.00,,,0.00,Wunderground v.1.15,2013-03-27 22:02:00,
2013-03-27 18:08:00,59.5,30.3,30.23,SW,236,5.0,11.0,33,0.00,,,0.00,Wunderground v.1.15,2013-03-27 22:08:00,
2013-03-27 18:14:00,59.5,30.3,30.23,WNW,286,5.0,6.0,33,0.00,,,0.00,Wunderground v.1.15,2013-03-27 22:14:00,
2013-03-27 18:20:00,59.3,30.9,30.23,West,280,5.0,9.0,34,0.00,,,0.00,Wunderground v.1.15,2013-03-27 22:20:00,
2013-03-27 18:26:00,59.1,30.7,30.23,WNW,286,7.0,9.0,34,0.00,,,0.00,Wunderground v.1.15,2013-03-27 22:26:00,
2013-03-27 18:32:00,58.8,30.5,30.23,WNW,286,7.0,11.0,34,0.00,,,0.00,Wunderground v.1.15,2013-03-27 22:32:00,
2013-03-27 18:38:00,58.9,30.6,30.23,WNW,283,6.0,11.0,34,0.00,,,0.00,Wunderground v.1.15,2013-03-27 22:38:00,
2013-03-27 18:44:00,58.6,30.3,30.23,West,275,6.0,6.0,34,0.00,,,0.00,Wunderground v.1.15,2013-03-27 22:44:00,
2013-03-27 18:50:00,58.6,31.0,30.24,West,273,5.0,5.0,35,0.00,,,0.00,Wunderground v.1.15,2013-03-27 22:50:00,
2013-03-27 18:58:00,58.6,31.0,30.24,West,273,4.0,6.0,35,0.00,,,0.00,Wunderground v.1.15,2013-03-27 22:58:00,
2013-03-27 19:04:00,58.4,30.8,30.23,WNW,292,4.0,12.0,35,0.00,,,0.00,Wunderground v.1.15,2013-03-27 23:04:00,
2013-03-27 19:10:00,58.1,30.6,30.23,WSW,248,4.0,4.0,35,0.00,,,0.00,Wunderground v.1.15,2013-03-27 23:10:00,
2013-03-27 19:16:00,58.1,31.3,30.23,West,279,3.0,4.0,36,0.00,,,0.00,Wunderground v.1.15,2013-03-27 23:16:00,
2013-03-27 19:22:00,57.8,30.3,30.24,WNW,300,3.0,4.0,35,0.00,,,0.00,Wunderground v.1.15,2013-03-27 23:22:00,
2013-03-27 19:28:00,57.4,30.6,30.24,West,281,3.0,4.0,36,0.00,,,0.00,Wunderground v.1.15,2013-03-27 23:28:00,
2013-03-27 19:34:00,56.9,30.9,30.24,WNW,297,2.0,3.0,37,0.00,,,0.00,Wunderground v.1.15,2013-03-27 23:34:00,
2013-03-27 19:40:00,56.4,31.1,30.24,West,275,1.0,1.0,38,0.00,,,0.00,Wunderground v.1.15,2013-03-27 23:40:00,
2013-03-27 19:48:00,55.6,31.0,30.24,WNW,294,1.0,1.0,39,0.00,,,0.00,Wunderground v.1.15,2013-03-27 23:48:00,
2013-03-27 19:54:00,55.1,31.8,30.24,West,279,1.0,1.0,41,0.00,,,0.00,Wunderground v.1.15,2013-03-27 23:54:00,
2013-03-27 20:00:00,54.7,32.0,30.24,West,271,1.0,1.0,42,0.00,,,0.00,Wunderground v.1.15,2013-03-28 00:00:00,
2013-03-27 20:06:00,54.4,32.3,30.25,West,267,1.0,8.0,43,0.00,,,0.00,Wunderground v.1.15,2013-03-28 00:06:00,
2013-03-27 20:12:00,54.1,33.2,30.24,West,268,1.0,1.0,45,0.00,,,0.00,Wunderground v.1.15,2013-03-28 00:12:00,
2013-03-27 20:18:00,53.6,34.9,30.25,NW,314,1.0,1.0,49,0.00,,,0.00,Wunderground v.1.15,2013-03-28 00:18:00,
2013-03-27 20:24:00,51.8,35.7,30.25,NNW,344,0.0,1.0,54,0.00,,,0.00,Wunderground v.1.15,2013-03-28 00:24:00,
2013-03-27 20:30:00,51.0,35.8,30.25,NNW,344,0.0,0.0,56,0.00,,,0.00,Wunderground v.1.15,2013-03-28 00:30:00,
2013-03-27 20:36:00,49.9,37.0,30.25,NNW,346,0.0,0.0,61,0.00,,,0.00,Wunderground v.1.15,2013-03-28 00:36:00,
2013-03-27 20:42:00,49.3,37.6,30.25,East,80,0.0,1.0,64,0.00,,,0.00,Wunderground v.1.15,2013-03-28 00:42:00,
2013-03-27 20:48:00,49.1,39.0,30.25,ESE,109,0.0,1.0,68,0.00,,,0.00,Wunderground v.1.15,2013-03-28 00:48:00,
2013-03-27 20:54:00,48.8,37.9,30.25,SSE,163,0.0,0.0,66,0.00,,,0.00,Wunderground v.1.15,2013-03-28 00:54:00,
2013-03-27 21:00:00,47.6,37.9,30.26,South,175,0.0,0.0,69,0.00,,,0.00,Wunderground v.1.15,2013-03-28 01:00:00,
2013-03-27 21:06:00,47.0,38.1,30.26,South,172,0.0,2.0,71,0.00,,,0.00,Wunderground v.1.15,2013-03-28 01:06:00,
2013-03-27 21:12:00,46.9,38.7,30.26,East,84,0.0,0.0,73,0.00,,,0.00,Wunderground v.1.15,2013-03-28 01:12:00,
2013-03-27 21:18:00,46.6,38.8,30.26,ENE,61,0.0,1.0,74,0.00,,,0.00,Wunderground v.1.15,2013-03-28 01:18:00,
2013-03-27 21:24:00,46.5,39.3,30.26,ENE,60,1.0,1.0,76,0.00,,,0.00,Wunderground v.1.15,2013-03-28 01:24:00,
2013-03-27 21:30:00,46.3,39.5,30.27,ENE,61,0.0,0.0,77,0.00,,,0.00,Wunderground v.1.15,2013-03-28 01:30:00,
2013-03-27 21:36:00,46.3,39.8,30.27,NE,53,0.0,0.0,78,0.00,,,0.00,Wunderground v.1.15,2013-03-28 01:36:00,
2013-03-27 21:42:00,45.7,38.6,30.27,NE,53,0.0,0.0,76,0.00,,,0.00,Wunderground v.1.15,2013-03-28 01:42:00,
2013-03-27 21:48:00,44.9,38.5,30.27,NE,53,0.0,0.0,78,0.00,,,0.00,Wunderground v.1.15,2013-03-28 01:48:00,
2013-03-27 21:54:00,44.8,39.0,30.27,NE,55,0.0,0.0,80,0.00,,,0.00,Wunderground v.1.15,2013-03-28 01:54:00,
2013-03-27 22:00:00,44.4,38.6,30.27,NE,55,0.0,0.0,80,0.00,,,0.00,Wunderground v.1.15,2013-03-28 02:00:00,
2013-03-27 22:06:00,44.2,39.1,30.28,NE,47,0.0,1.0,82,0.00,,,0.00,Wunderground v.1.15,2013-03-28 02:06:00,
2013-03-27 22:12:00,44.2,39.7,30.27,NE,47,0.0,0.0,84,0.00,,,0.00,Wunderground v.1.15,2013-03-28 02:12:00,
2013-03-27 22:18:00,44.2,40.0,30.27,NE,47,0.0,0.0,85,0.00,,,0.00,Wunderground v.1.15,2013-03-28 02:18:00,
2013-03-27 22:24:00,44.0,39.5,30.27,NE,51,0.0,0.0,84,0.00,,,0.00,Wunderground v.1.15,2013-03-28 02:24:00,
2013-03-27 22:30:00,43.7,39.5,30.28,NE,51,0.0,0.0,85,0.00,,,0.00,Wunderground v.1.15,2013-03-28 02:30:00,
2013-03-27 22:36:00,43.4,39.2,30.28,NE,51,0.0,0.0,85,0.00,,,0.00,Wunderground v.1.15,2013-03-28 02:36:00,
2013-03-27 22:42:00,43.3,39.4,30.27,NE,53,0.0,0.0,86,0.00,,,0.00,Wunderground v.1.15,2013-03-28 02:42:00,
2013-03-27 22:48:00,43.3,39.7,30.27,NE,53,0.0,0.0,87,0.00,,,0.00,Wunderground v.1.15,2013-03-28 02:48:00,
2013-03-27 22:54:00,43.1,39.5,30.28,NE,55,0.0,0.0,87,0.00,,,0.00,Wunderground v.1.15,2013-03-28 02:54:00,
2013-03-27 23:00:00,42.8,39.2,30.28,NE,53,0.0,0.0,87,0.00,,,0.00,Wunderground v.1.15,2013-03-28 03:00:00,
2013-03-27 23:06:00,42.5,38.9,30.28,NE,54,0.0,0.0,87,0.00,,,0.00,Wunderground v.1.15,2013-03-28 03:06:00,
2013-03-27 23:12:00,42.2,38.9,30.28,NE,53,0.0,0.0,88,0.00,,,0.00,Wunderground v.1.15,2013-03-28 03:12:00,
2013-03-27 23:18:00,41.9,38.3,30.28,NE,53,0.0,0.0,87,0.00,,,0.00,Wunderground v.1.15,2013-03-28 03:18:00,
2013-03-27 23:24:00,41.5,38.2,30.28,NE,53,0.0,0.0,88,0.00,,,0.00,Wunderground v.1.15,2013-03-28 03:24:00,
2013-03-27 23:30:00,41.5,38.2,30.28,NE,53,0.0,0.0,88,0.00,,,0.00,Wunderground v.1.15,2013-03-28 03:30:00,
2013-03-27 23:38:00,42.1,37.6,30.28,WNW,294,0.0,1.0,84,0.00,,,0.00,Wunderground v.1.15,2013-03-28 03:38:00,
2013-03-27 23:44:00,43.1,37.0,30.28,West,279,0.0,1.0,79,0.00,,,0.00,Wunderground v.1.15,2013-03-28 03:44:00,
2013-03-27 23:50:00,43.8,36.7,30.28,West,261,0.0,0.0,76,0.00,,,0.00,Wunderground v.1.15,2013-03-28 03:50:00,
2013-03-27 23:58:00,44.4,36.3,30.27,West,273,1.0,1.0,73,0.00,,,0.00,Wunderground v.1.15,2013-03-28 03:58:00,